Wind_Speed
11 11 11 10 10 11 12 11 11 10 10 10 10 11 12 12 10 11 14 19 23 23 22 22 22 23 20 20 19 14 10 9 10 7 4 5 6 6 7 6 4 5 7
12 11 11 9 10 10 10 11 11 11 11 10 12 11 12 12 11 9 8 7 14 20 21 21 21 21 19 20 19 11 12 10 8 6 7 2 4 7 7 7 7 6 6
12 13 11 10 11 12 11 11 12 11 12 12 12 11 11 8 9 9 7 6 3 4 13 18 19 19 19 18 18 18 16 7 9 10 9 6 2 2 6 7 8 8 8
12 12 11 12 11 11 9 11 11 10 11 11 12 12 10 10 8 5 3 3 3 0 5 10 11 15 16 17 16 15 15 14 12 10 12 14 9 6 2 2 6 8 9
11 11 11 12 10 11 12 9 12 10 10 11 11 11 10 11 9 8 8 6 4 2 1 6 8 10 14 14 14 14 13 13 12 13 15 16 16 17 12 8 3 3 4
12 12 12 13 12 11 12 11 11 10 12 9 11 11 9 8 8 9 9 7 7 6 6 5 5 6 9 13 15 13 12 11 12 11 11 14 15 16 17 17 16 14 9
13 12 14 13 11 11 11 10 12 9 10 8 7 7 7 8 7 7 6 6 7 7 8 7 6 5 6 8 13 13 10 9 9 11 12 13 14 14 14 14 15 16 15
13 13 13 13 12 13 12 11 10 9 10 5 2 6 2 3 4 5 5 6 6 6 5 6 6 6 6 7 9 12 11 9 7 7 9 10 11 11 11 11 12 12 13
15 15 13 14 14 11 12 11 9 12 7 8 8 4 1 2 5 3 4 3 4 5 3 6 5 5 5 3 1 4 10 10 8 7 8 9 9 9 9 9 9 9 10
15 15 15 14 14 12 12 11 9 9 12 8 6 9 7 5 2 1 4 2 3 2 3 3 3 4 3 3 4 4 5 9 8 8 7 6 7 7 7 7 8 8 9
14 14 13 13 14 12 11 12 10 10 10 10 9 6 5 5 6 4 2 3 3 1 2 3 2 1 2 3 2 4 5 6 6 7 6 6 6 5 5 6 8 9 9
14 14 13 12 12 11 11 9 9 8 9 8 8 7 9 5 7 6 3 3 3 2 2 5 1 1 2 1 4 6 7 6 6 6 7 7 6 7 8 9 9 9 9
14 13 11 11 11 10 9 9 8 7 7 7 6 7 6 6 4 6 4 3 3 2 1 2 3 4 1 1 5 8 7 8 7 6 6 5 5 7 8 8 8 8 9
13 13 12 11 9 8 7 7 6 5 5 5 3 3 3 3 2 3 3 4 2 2 5 3 5 3 2 3 6 7 10 9 9 10 10 9 8 8 8 7 7 7 8
13 12 10 9 7 6 5 4 5 3 3 2 2 1 1 1 1 1 1 0 1 1 2 5 4 4 2 4 5 10 12 12 10 12 12 10 10 10 10 9 9 9 9
12 11 9 8 7 6 5 3 3 2 2 1 1 3 2 2 3 3 3 3 4 4 2 2 4 15 13 12 12 11 13 11 12 11 12 12 12 12 12 13 12 11 11
8 10 9 9 7 6 5 3 2 2 3 2 3 4 4 5 6 6 6 7 7 8 11 16 15 14 16 16 15 14 14 15 14 12 12 12 13 14 14 15 15 15 14
11 10 10 9 8 7 6 5 5 4 5 5 5 6 7 6 7 8 9 10 10 11 13 16 17 16 16 17 19 18 16 15 15 15 14 14 15 16 17 17 17 17 16
14 12 12 10 9 7 7 8 8 8 8 9 9 9 9 9 10 10 10 11 12 13 14 16 17 17 20 20 19 17 17 18 16 19 14 13 13 14 16 16 17 17 18
15 14 12 10 10 9 9 9 9 10 11 11 11 11 12 12 12 11 11 12 12 14 15 15 16 19 20 21 18 19 21 18 19 15 14 16 17 17 18 18 18 18 17
16 13 12 11 12 11 11 11 11 11 12 12 12 13 12 12 12 12 13 14 14 14 15 16 14 16 18 18 17 20 19 21 21 22 20 19 16 18 19 18 18 18 17
14 14 12 13 12 11 10 10 11 13 13 14 14 14 15 15 16 16 17 17 18 20 23 20 18 17 20 23 20 20 20 18 13 19 19 20 18 21 27 25 26 24 24
11 10 12 13 14 14 12 12 13 14 15 16 16 17 17 17 16 17 16 16 17 17 20 23 27 25 20 18 24 21 22 20 18 20 23 24 25 27 28 27 25 23 23
12 13 12 11 12 14 12 13 13 15 16 17 18 18 19 19 18 17 19 19 19 18 20 22 23 23 24 25 25 25 25 26 27 25 25 24 23 26 26 23 20 20 22
9 9 10 12 14 16 13 13 14 16 17 18 17 18 19 20 19 17 19 19 19 21 23 21 21 23 25 26 26 25 22 18 19 21 22 19 18 22 22 23 25 26 29
10 11 12 12 13 15 13 13 13 16 18 19 18 19 18 19 19 19 21 22 23 26 25 24 24 23 22 23 21 22 27 22 21 20 21 22 21 17 11 22 23 18 16
Wind_Direction
123 119 117 116 109 117 106 96 81 81 79 82 98 111 104 109 105 117 104 100 65 63 60 60 68 69 72 73 77 101 93 85 85 98 154 199 206 212 207 197 180 158 168
129 118 108 106 110 106 109 113 109 95 86 85 86 83 109 112 127 123 119 100 85 65 59 56 63 62 62 60 60 92 86 76 68 76 75 97 217 222 222 218 206 197 193
130 125 120 112 97 92 90 87 94 97 99 93 86 93 86 103 119 123 139 139 82 34 52 55 55 58 57 56 57 59 62 93 77 70 74 74 74 243 225 226 224 220 216
125 125 126 108 101 92 98 106 90 95 99 102 102 88 88 89 82 91 120 150 156 300 4 39 47 50 52 53 51 48 50 66 71 80 98 80 90 90 82 222 226 226 222
131 131 119 110 111 111 99 86 106 95 94 96 100 105 98 92 88 74 57 56 72 77 39 48 39 43 44 43 41 39 45 50 65 76 72 74 78 85 87 94 138 158 198
124 117 111 104 96 99 99 90 90 112 96 90 105 97 96 99 100 88 78 55 58 52 53 56 51 48 45 45 40 47 51 49 54 56 64 60 63 72 75 84 79 83 110
118 117 109 110 117 104 100 102 95 99 115 107 111 101 95 99 94 86 87 73 67 52 53 42 45 53 51 44 47 49 45 54 61 55 55 53 50 52 63 63 73 67 64
120 116 116 108 100 102 97 99 93 89 79 97 59 164 136 115 128 122 117 93 76 67 50 41 41 54 48 37 55 50 50 50 42 28 30 32 34 39 40 47 53 58 54
134 128 123 121 112 107 99 92 94 85 91 64 64 74 54 88 139 147 149 131 108 72 60 51 28 61 75 38 23 23 41 39 39 33 26 12 15 20 23 24 32 33 30
135 131 125 123 117 110 101 87 91 92 92 79 69 55 70 68 102 96 154 170 142 114 69 69 41 35 98 55 49 30 25 29 26 23 20 10 9 1 360 359 3 359 0
137 130 127 120 116 118 111 103 99 88 87 81 75 59 46 63 57 71 120 196 203 113 9 1 325 96 344 118 237 326 14 10 15 12 1 354 352 348 339 330 326 323 325
139 135 127 123 118 111 110 110 103 103 95 87 81 73 59 41 37 33 31 33 30 80 313 305 5 198 288 306 314 335 350 356 360 359 357 344 332 322 325 323 318 314 316
146 138 132 124 123 127 124 115 110 98 100 95 92 80 74 61 64 42 28 346 1 338 359 262 209 224 222 178 295 318 334 343 339 341 340 331 315 305 308 311 312 309 308
150 150 147 145 151 147 138 128 116 103 95 97 102 98 106 92 75 71 45 26 346 311 238 217 177 150 188 249 292 323 322 312 320 320 321 317 308 300 302 302 306 308 308
156 154 155 154 149 145 136 127 116 101 103 109 96 31 353 282 280 239 214 210 36 342 321 68 107 62 8 322 324 312 316 311 301 302 303 301 300 300 299 296 294 295 296
156 164 167 168 164 161 151 146 144 167 165 144 211 207 227 261 274 272 260 252 243 246 250 318 313 323 319 307 306 307 307 305 296 296 292 291 291 293 295 295 292 290 289
196 194 188 184 190 180 170 168 173 226 258 235 241 280 248 245 247 253 255 256 255 253 263 281 292 304 308 305 303 303 301 294 295 296 288 283 282 284 287 289 289 288 289
191 192 187 190 189 191 191 196 214 232 251 257 256 254 264 264 259 257 254 253 255 256 259 271 287 294 296 299 297 298 295 299 300 296 290 287 285 285 285 284 282 283 282
186 186 188 194 200 202 206 215 224 235 246 248 248 249 253 253 256 256 257 259 258 260 260 266 278 286 292 297 298 295 296 293 289 294 292 288 289 291 291 287 283 279 279
180 185 191 197 206 209 216 222 227 232 243 252 253 250 248 246 248 252 255 257 263 267 267 270 273 282 289 294 290 284 288 295 290 292 282 288 292 294 295 287 285 282 280
183 189 193 201 211 217 223 230 233 241 244 249 253 256 257 259 252 251 249 254 257 261 267 267 264 265 274 274 264 277 272 286 282 286 285 286 287 297 306 294 286 289 287
195 201 205 210 216 222 229 236 237 240 245 251 255 260 260 258 258 259 261 257 256 253 253 252 256 252 257 265 280 277 277 273 276 277 270 280 288 287 292 286 281 286 284
205 216 218 224 229 233 240 246 246 249 252 253 255 258 258 254 253 259 257 263 264 267 262 262 249 252 259 270 285 287 280 277 274 277 282 275 278 281 288 282 283 281 283
218 219 232 240 247 250 250 252 251 251 253 254 256 257 259 261 258 261 263 260 262 266 268 271 274 279 279 279 276 275 277 279 280 278 272 265 271 273 284 285 283 281 284
225 237 243 244 250 261 257 255 252 252 254 257 261 262 262 262 262 263 263 266 268 269 273 272 272 273 275 274 273 272 267 269 272 278 271 268 267 279 279 278 280 284 285
231 245 251 258 266 269 267 260 259 259 261 263 264 262 260 261 262 256 256 260 266 268 277 281 282 278 275 276 275 272 278 275 270 278 271 266 273 273 283 281 283 288 291
Height
831 833 834 835 836 837 838 841 842 843 844 846 847 850 850 851 854 855 856 855 855 856 858 859 857 858 860 858 859 859 863 864 864 863 864 866 868 870 872 874 875 876 877
831 833 835 836 837 838 839 841 843 845 846 848 850 850 851 854 856 856 857 857 855 857 859 860 859 860 862 862 861 861 863 865 866 865 864 866 867 869 871 872 874 875 877
831 833 835 836 838 840 842 843 844 845 847 848 850 852 853 854 855 856 857 857 859 859 860 860 861 862 862 864 864 863 864 865 866 866 865 866 867 868 869 871 872 874 876
832 833 835 836 839 841 842 844 846 847 848 849 851 853 855 856 857 858 859 860 860 860 862 862 863 862 865 865 865 866 864 865 867 867 866 867 867 868 868 869 870 872 873
832 833 835 837 839 841 842 844 845 849 850 851 852 854 856 858 859 859 859 861 862 862 864 865 864 864 866 865 865 867 866 868 869 868 867 867 867 867 868 869 869 870 872
832 834 836 838 841 842 843 846 846 849 851 854 855 856 858 859 860 861 863 864 864 866 866 866 865 865 866 866 866 869 870 870 872 870 869 868 867 868 868 868 869 869 871
833 835 837 840 842 843 846 848 849 850 851 853 856 858 860 861 861 863 865 866 867 867 867 866 866 867 867 866 869 870 872 872 872 872 871 870 870 869 870 869 870 869 870
834 836 838 840 842 844 847 849 851 853 854 855 856 857 862 864 864 865 866 868 868 868 868 868 868 868 868 868 871 871 873 874 873 872 872 871 871 871 871 871 871 870 870
834 837 839 841 843 844 846 848 850 852 855 857 857 858 858 862 863 866 867 867 868 868 868 869 869 869 870 870 870 872 873 874 874 874 872 872 872 872 872 873 871 871 871
835 837 840 841 843 846 847 849 851 853 854 857 859 860 860 861 862 867 867 867 868 868 868 869 870 870 871 871 872 873 872 873 874 873 873 874 873 874 873 874 872 873 872
835 838 840 842 843 845 848 850 853 855 857 858 859 861 863 862 862 863 867 867 868 868 868 868 869 871 870 872 872 872 872 873 872 873 873 874 874 875 874 875 873 873 873
836 838 840 842 845 847 849 851 853 855 857 859 861 862 864 865 865 865 866 867 867 868 868 868 868 870 870 871 871 870 871 871 870 871 871 872 872 873 872 871 872 872 871
836 839 841 843 845 847 850 852 854 856 858 859 861 863 864 865 866 866 868 869 869 869 869 869 869 870 871 871 871 871 870 870 870 870 871 871 871 871 871 871 871 871 870
837 839 841 843 845 847 849 852 854 856 858 860 861 863 863 865 865 866 868 870 871 869 868 868 870 870 871 871 871 871 870 869 869 869 868 869 869 869 868 868 868 867 867
837 841 842 843 844 847 850 852 854 856 857 859 861 863 863 865 865 865 866 868 870 872 870 868 870 871 871 871 872 871 870 869 869 867 867 867 867 866 865 865 865 865 866
837 841 842 843 845 846 848 852 854 856 857 859 861 862 863 865 866 866 866 867 869 871 872 869 868 869 869 869 870 870 869 868 867 866 865 865 864 864 864 864 863 863 863
838 840 842 843 846 847 847 850 854 856 857 858 860 862 862 863 864 865 866 866 866 868 869 868 867 867 866 866 866 866 866 865 863 863 863 863 862 862 862 861 861 859 858
837 840 843 844 846 847 847 848 852 855 857 858 859 860 861 861 862 864 864 864 865 865 866 866 866 865 864 864 862 862 861 861 860 859 859 858 858 858 857 857 856 855 854
836 839 842 845 847 847 848 850 851 854 856 858 858 858 859 860 860 862 862 862 862 863 863 863 862 862 861 861 859 858 857 857 857 855 854 854 854 853 853 852 852 851 850
837 839 841 843 846 846 848 850 851 852 855 856 856 856 856 857 857 859 860 860 859 860 861 860 859 858 857 857 857 855 853 853 852 852 851 850 850 849 848 848 847 845 844
835 838 840 841 844 845 846 847 848 850 852 852 854 853 853 854 854 855 856 856 856 857 857 857 856 855 854 854 853 852 851 850 849 849 846 846 845 845 844 842 841 840 839
833 835 837 839 841 842 844 846 847 848 848 849 850 850 850 851 851 851 851 851 852 852 852 852 852 851 850 850 850 850 849 848 846 846 843 842 841 840 840 838 836 835 833
832 833 835 837 839 840 842 844 844 844 844 846 846 846 847 846 847 847 847 847 846 846 845 845 844 844 845 846 846 844 844 842 841 840 841 836 836 833 832 831 830 829 828
831 832 833 834 835 837 838 840 840 840 840 841 841 842 843 842 843 842 843 842 841 841 841 841 841 839 840 840 840 838 836 835 834 833 835 829 829 826 826 825 825 824 823
829 830 831 832 833 834 834 836 836 836 836 836 836 837 838 838 836 836 837 836 834 835 835 835 834 833 833 833 833 831 830 829 827 827 825 824 823 821 820 819 819 817 816
827 828 829 830 830 830 831 831 831 831 830 831 832 833 833 831 830 831 831 829 829 828 828 828 828 827 827 827 827 826 824 822 821 819 821 820 817 817 813 812 812 810 809